Regional Weather Roundup
Issued by NWS

Home | Current Version | Previous Version | Text Only | Print | Product List | Glossary On
Versions: 1 2 3 4 5 6 7 8 9 10 11 12 13 14 15 16 17 18 19 20 21 22 23 24 25 26 27 28 29 30 31 32 33 34 35 36 37 38 39 40 41 42 43 44 45 46 47 48 49 50
000
ASUS44 KFWD 050915
RWRTX
NORTH TEXAS HOURLY WEATHER ROUNDUP
NATIONAL WEATHER SERVICE FORT WORTH TX
400 AM CDT TUE MAY 05 2015

NOTE: "FAIR" INDICATES FEW OR NO CLOUDS BELOW 12,000 FEET WITH NO
SIGNIFICANT WEATHER AND/OR OBSTRUCTIONS TO VISIBILITY.

TXZ118-119-051000-
DALLAS/FORT WORTH METROPLEX

CITY           SKY/WX    TMP DP  RH WIND       PRES   REMARKS
DFW AIRPORT    MOCLDY    64  56  75 SE9       30.00F
DALLAS LOVE    MOCLDY    66  56  70 SE7       30.02S
FTW MEACHAM    MOCLDY    65  56  72 SE8       30.00S
DAL-EXECUTIVE  PTCLDY    62  56  80 SE9       30.01F
FTW-ALLIANCE   MOCLDY    64  57  78 S7        30.00F
FTW-NAS-JRB    MOCLDY    66  56  70 SE7       30.00F
FTW-SPINKS     MOCLDY    61  55  82 SE6       30.02S
ARLINGTON      MOCLDY    63  54  72 SE7       30.01S
GRAND PRAIRIE  MOCLDY    65  58  77 SE6       30.03S
ADDISON        PTCLDY    66  57  71 S8        30.03F
MESQUITE       PTCLDY    62  57  86 SE6       30.03S
LANCASTER      PTCLDY    58  54  85 SE3       30.04S
$$

TXZ091>094-102>105-117-120-121-131>134-051000-
NORTH CENTRAL TEXAS

CITY           SKY/WX    TMP DP  RH WIND       PRES   REMARKS
SHRMAN/DENISON CLEAR     65  60  83 SE7       30.04F
GAINESVILLE    MOCLDY    59  56  90 SE5       30.04S
BOWIE          CLOUDY    61  54  77 SE3       30.01S
BRIDGEPORT     CLOUDY    63  57  80 SE6       30.02S
DECATUR        CLOUDY    63  53  70 SE12      30.01S
DENTON         MOCLDY    64  56  75 SE7       30.01F
MCKINNEY       CLEAR     63  57  81 SE7       30.03F
GREENVILLE     CLEAR     61  55  82 SE6       30.05S
ROCKWALL       CLEAR     62  57  86 SE6       30.03S
TERRELL        CLEAR     65  57  75 E6        30.04F
WAXAHACHIE     PTCLDY    60  56  87 SE3       30.03S
CLEBURNE       MOCLDY    63  59  88 SE9       30.01F
GRANBURY         N/A     65  57  75 SE7       30.00F
$$

TXZ083>090-098>101-113>116-127>130-139>142-154-155-051000-
WESTERN NORTH TEXAS

CITY           SKY/WX    TMP DP  RH WIND       PRES   REMARKS
WICHITA FALLS  CLOUDY    62  53  72 SE10      29.97F
WF-KICKAPOO    CLOUDY    64  55  70 E6        29.98F
VERNON         CLOUDY    68  50  52 SE13G21   29.94F
ABILENE        CLOUDY    67  58  72 SE18G25   29.91F
ABILENE-DYESS  MOCLDY    67  60  78 S22       29.90S
BRECKENRIDGE   CLOUDY    69  57  66 SE13G18   29.95F
GRAHAM         CLOUDY    65  57  75 SE7       29.96S
MINERAL WELLS  CLOUDY    64  56  75 SE8       29.98S
STEPHENVILLE   MOCLDY    65  57  75 SE8       30.01S
COMANCHE       CLOUDY    65  61  87 SE8       29.98R
BROWNWOOD      CLOUDY    66  59  77 SE8       29.97S
COLEMAN        CLOUDY    66  61  82 SE10      29.96S
BRADY          CLOUDY    66  61  82 SE14      29.94F
$$

TXZ143>147-156>162-174-175-051000-
CENTRAL TEXAS

CITY           SKY/WX    TMP DP  RH WIND       PRES   REMARKS
WACO           MOCLDY    61  57  87 E7        30.00F
WACO-MCGREGOR  PTCLDY    63  54  72 SE7       30.01S
HILLSBORO      PTCLDY    62  55  78 SE8       30.01F
CORSICANA      CLEAR     63  58  83 SE7       30.04S
MEXIA          CLEAR     61  58  91 E6        30.02F
HEARNE         PTCLDY    61  59  92 E3        30.02F
CAMERON        MOCLDY    62  60  93 E3        29.99F
TEMPLE         PTCLDY    63  55  77 E8        29.98F
KILLEEN        MOCLDY    64  61  90 SE14      29.97F
KILLEEN-SKYLRK MOCLDY    64  55  72 SE12      29.97F
FORT HOOD      MOCLDY    64  60  86 SE9       29.97F
GATESVILLE     MOCLDY    64  59  82 SE3       30.00F
HAMILTON       MOCLDY    64  58  81 S14       29.99R
LAMPASAS       CLOUDY    66  62  88 SE7       29.97S
$$

TXZ095>097-106>112-122>126-135>138-148>153-164>167-051000-
EAST TEXAS

CITY           SKY/WX    TMP DP  RH WIND       PRES   REMARKS
PARIS          PTCLDY    61  54  77 MISG      30.07S
SULPHUR SPRNGS MOCLDY    64  56  77 SE6       30.08S
MOUNT PLEASANT PTCLDY    63  60  93 SE5       30.09R
GILMER           N/A    N/A N/A N/A MISG        N/A
MINEOLA        CLEAR     59  57  94 CALM      30.07S
TYLER          CLEAR     63  57  81 SE7       30.06R
LONGVIEW       MOCLDY    67  63  87 SE6       30.06S
MARSHALL       MOCLDY    68  65  88 SE3       30.10S
ATHENS         CLEAR     57  55  94 CALM      30.04S FOG
PALESTINE      CLEAR     62  59  91 CALM      30.05F
JACKSONVILLE   CLEAR     63  58  82 SE3       30.08S
HENDERSON      CLEAR     64  62  93 CALM      30.07F
NACOGDOCHES      N/A     66  63  88 SE5       30.05F
LUFKIN         MOCLDY    67  62  84 SE5       30.05S
$$

SUPPLEMENTAL OBSERVATIONS (CENTRAL)

CITY           SKY/WX    TMP DP  RH WIND       PRES   REMARKS
CADDO GRASSLND   N/A     63  57  82 SE3         N/A
PAT MAYSE LAKE   N/A     63  57  82 E6          N/A
GREENVILLE       N/A     61  55  82 SE2         N/A
CEDAR HILL       N/A     63  55  77 SE6         N/A
LAKE LIMESTONE   N/A     63  59  88 SE5         N/A
MCGREGOR         N/A     63  59  88 SE5         N/A
$$

SUPPLEMENTAL OBSERVATIONS (WEST)

CITY           SKY/WX    TMP DP  RH WIND       PRES   REMARKS
LBJ GRASSLAND    N/A     64  54  68 SE8         N/A
GRANBURY         N/A     64  55  72 SE9         N/A
COMANCHE         N/A     64  59  82 SE12        N/A
HAMBY            N/A     66  55  68 SE12G20     N/A
IVIE RESERVOIR   N/A     66  57  72 SE13        N/A
COLORADO BEND    N/A     66  61  82 S10G22      N/A
$$

SUPPLEMENTAL OBSERVATIONS (EAST)

CITY           SKY/WX    TMP DP  RH WIND       PRES   REMARKS
CLARKSVILLE      N/A     64  61  88 S7          N/A
TEXARKANA        N/A     66  63  88 SE2         N/A
LINDEN           N/A     66  61  82 E2          N/A
CADDO LAKE       N/A     64  63  94 E2          N/A
GILMER           N/A     64  61  88 S2          N/A
HENDERSON        N/A     64  61  88 S1          N/A
LUFKIN           N/A     61  57  88 MISG        N/A
N SABINE NF      N/A     70  64  83 MISG        N/A
S SABINE NF      N/A     70  66  88 CALM        N/A
$$

SUPPLEMENTAL OBSERVATIONS ARE A COLLECTION OF AUTOMATED INSTRUMENTS
THAT ARE MAINTAINED BY A VARIETY OF FEDERAL AND STATE AGENCIES.
CERTAIN ELEMENTS...SUCH AS HUMIDITY VALUES AND SUSTAINED WIND
SPEEDS...MAY BE APPROXIMATED.



USA.gov is the U.S. government's official web portal to all federal, state and local government web resources and services.